Volver al catálogo

KUIPER-00236

ActivoComunicacionesLEO
NORAD 68582·PAYLOAD·🇺🇸 United States

Lanzado Apr 4, 2026 desde Cape Canaveral Space Force Station

Loading…

Próximos Pases (próximas 24 horas)

TLE

ActualizadoSource: CelesTrak SupGP

Época: Sep 14, 2026, 20:45 UTC

1 68582C 26072K   26257.86504630 -.00725190  00000+0 -95159-1 0  2572
2 68582  51.9016 108.9413 0000999  85.3259 215.1491 14.80555801    19

Sigue KUIPER-00236 en tiempo real con AllMySat

Download on the App Store